This is the latest recevied weather packets stored in our database for station/object KA1JKB. If no packets are shown the sender has not sent any weather packets the latest 10 day(s).
| Time | Temp. | Humidity | Pressure | Rain* | Wind** | Luminosity | Snow |
|---|---|---|---|---|---|---|---|
| 1777685452 | 4.44° C | 78% | 1013 hPa | 0 mm | - | 0 W/m² | - |
| 1777685149 | 4.44° C | 77% | 1013.2 hPa | 0 mm | - | 0 W/m² | - |
| 1777684847 | 5° C | 76% | 1013 hPa | 0 mm | - | 0 W/m² | - |
| 1777684543 | 5° C | 76% | 1013 hPa | 0 mm | - | 0 W/m² | - |
| 1777684240 | 5° C | 75% | 1013 hPa | 0 mm | - | 0 W/m² | - |
| 1777683937 | 5.56° C | 74% | 1013 hPa | 0 mm | - | 0 W/m² | - |
| 1777683633 | 5.56° C | 74% | 1013 hPa | 0 mm | - | 0 W/m² | - |
| 1777683332 | 5.56° C | 74% | 1012.7 hPa | 0 mm | - | 0 W/m² | - |
| 1777683029 | 5.56° C | 74% | 1012.9 hPa | 0 mm | - | 0 W/m² | - |
| 1777682724 | 5.56° C | 74% | 1012.9 hPa | 0 mm | - | 0 W/m² | - |
| 1777682421 | 5.56° C | 73% | 1012.9 hPa | 0 mm | - | 0 W/m² | - |
| 1777682120 | 5.56° C | 73% | 1012.8 hPa | 0 mm | - | 0 W/m² | - |
| 1777681816 | 5.56° C | 74% | 1012.9 hPa | 0 mm | - | 0 W/m² | - |
| 1777681512 | 5.56° C | 73% | 1012.9 hPa | 0 mm | - | 1 W/m² | - |
| 1777681210 | 5.56° C | 73% | 1012.8 hPa | 0 mm | - | 3 W/m² | - |
| 1777680907 | 6.11° C | 72% | 1012.8 hPa | 0 mm | - | 4 W/m² | - |
| 1777680605 | 6.11° C | 72% | 1012.7 hPa | 0 mm | - | 11 W/m² | - |
| 1777680303 | 6.11° C | 72% | 1012.7 hPa | 0 mm | - | 16 W/m² | - |
| 1777679999 | 6.11° C | 73% | 1012.7 hPa | 0 mm | - | 19 W/m² | - |
| 1777679695 | 6.11° C | 73% | 1012.7 hPa | 0 mm | - | 24 W/m² | - |
| 1777679390 | 6.11° C | 73% | 1012.6 hPa | 0 mm | - | 29 W/m² | - |
| 1777679087 | 6.11° C | 72% | 1012.4 hPa | 0 mm | - | 31 W/m² | - |
| 1777678786 | 6.11° C | 73% | 1012.7 hPa | 0 mm | - | 28 W/m² | - |
| 1777678483 | 6.11° C | 73% | 1012.4 hPa | 0 mm | - | 25 W/m² | - |
| 1777678178 | 6.11° C | 73% | 1012.6 hPa | 0 mm | - | 21 W/m² | - |
* Rain latest hour (hover to see other rain measurements)
** Current wind speed in m/s (hover to see current wind gust speed)